This demonstration page uses our WeatherBlox Daily Observations layout. Learn more.

40.92945, -100.16068

Hourly Observations for July 28, 2015

Temp ( °F °C ) Dew Point ( °F °C ) Humidity (%) Winds ( mph kmh ) Pressure ( in mb ) Visibility ( mi km ) Precip ( " mm )
12:15 am 00:15 Clear 83 28.1 67 19.7 60 60 SSE 17 28 29.62 1003 10 16.0934 N/A
12:35 am 00:35 Clear 82 28 67 19.7 61 61 SSE 15 24 29.56 1001 10 16.0934 N/A
12:55 am 00:55 Clear 82 27.9 67 19.7 61 61 SSE 18 30 29.56 1001 10 16.0934 N/A
1:15 am 01:15 Clear 82 27.7 68 19.9 63 63 S 20 31 29.56 1001 10 16.0934 N/A
1:35 am 01:35 Clear 82 27.5 68 20.1 64 64 S 20 31 29.56 1001 10 16.0934 N/A
1:55 am 01:55 Clear 81 27.3 68 20.2 65 65 S 21 33 29.59 1002 10 16.0934 N/A
2:15 am 02:15 Clear 82 27.5 68 20.2 64 64 S 17 28 29.56 1001 10 16.0934 N/A
2:35 am 02:35 Clear 81 27.2 68 20.2 66 66 S 15 24 29.59 1002 10 16.0934 N/A
2:55 am 02:55 Clear 81 27.3 68 20.1 65 65 S 16 26 29.59 1002 10 16.0934 N/A
3:15 am 03:15 Clear 81 27.1 68 20 65 65 S 16 26 29.59 1002 10 16.0934 N/A
3:35 am 03:35 Clear 81 27 68 20.1 66 66 S 16 26 29.59 1002 10 16.0934 N/A
3:55 am 03:55 Clear 81 27 68 20.1 66 66 S 13 20 29.59 1002 10 16.0934 N/A
4:15 am 04:15 Clear 81 27.1 68 20.1 66 66 S 10 17 29.59 1002 10 16.0934 N/A
4:35 am 04:35 Clear 81 27 68 20.1 66 66 S 12 19 29.59 1002 10 16.0934 N/A
4:55 am 04:55 Clear 79 26.1 68 20.1 70 70 WSW 5 7 29.62 1003 10 16.0934 N/A
5:15 am 05:15 Clear 77 25.1 69 20.3 75 75 SW 5 7 29.62 1003 10 16.0934 N/A
5:35 am 05:35 Clear 77 25.1 69 20.3 75 75 SW 3 6 29.62 1003 10 16.0934 N/A
5:55 am 05:55 Clear 76 24.3 68 20.2 78 78 Calm 29.65 1004 10 16.0934 N/A
6:15 am 06:15 Clear 75 23.8 69 20.3 81 81 Calm 29.65 1004 10 16.0934 N/A
6:35 am 06:35 Sunny 74 23.4 68 20.2 82 82 Calm 29.65 1004 10 16.0934 N/A
6:55 am 06:55 Sunny 74 23.2 68 20.1 83 83 NW 7 11 29.68 1005 10 16.0934 N/A
7:15 am 07:15 Sunny 73 22.8 69 20.5 87 87 NNW 5 7 29.68 1005 10 16.0934 N/A
7:35 am 07:35 Mostly Cloudy 74 23.1 70 20.9 87 87 N 24 39 29.71 1006 7 11.26538 N/A
7:55 am 07:55 Cloudy 73 23 64 17.5 71 71 N 18 30 29.74 1007 10 16.0934 N/A
8:15 am 08:15 Cloudy 73 22.8 62 16.9 69 69 N 22 35 29.77 1008 10 16.0934 N/A
8:35 am 08:35 Mostly Cloudy 71 21.6 60 15.5 68 68 N 21 33 29.83 1010 10 16.0934 N/A
8:55 am 08:55 Sunny 71 21.7 58 14.7 65 65 N 21 33 29.83 1010 10 16.0934 N/A
9:15 am 09:15 Sunny 72 22.4 57 13.8 58 58 N 20 31 29.83 1010 10 16.0934 N/A
9:35 am 09:35 Sunny 71 21.9 54 12.2 54 54 N 18 30 29.85 1011 10 16.0934 N/A
9:55 am 09:55 Sunny 72 22 53 11.9 53 53 N 16 26 29.85 1011 10 16.0934 N/A
10:15 am 10:15 Sunny 72 22.1 52 11.3 50 50 N 15 24 29.88 1012 10 16.0934 N/A
10:35 am 10:35 Sunny 74 23.2 51 10.6 45 45 N 21 33 29.88 1012 10 16.0934 N/A
10:55 am 10:55 Sunny 75 23.7 51 10.3 43 43 N 21 33 29.85 1011 10 16.0934 N/A
11:15 am 11:15 Sunny 75 23.7 51 10.4 43 43 N 21 33 29.85 1011 10 16.0934 N/A
11:35 am 11:35 Sunny 77 25 51 10.4 40 40 N 20 31 29.88 1012 10 16.0934 N/A
11:55 am 11:55 Sunny 77 25 50 9.9 39 39 N 20 31 29.88 1012 10 16.0934 N/A
12:15 pm 12:15 Sunny 78 25.5 51 10.7 39 39 N 16 26 29.88 1012 10 16.0934 N/A
12:35 pm 12:35 Sunny 76 24.7 51 10.3 40 40 N 13 20 29.88 1012 10 16.0934 N/A
12:55 pm 12:55 Sunny 79 26.3 52 11.2 39 39 N 16 26 29.88 1012 10 16.0934 N/A
1:15 pm 13:15 Sunny 77 25 53 11.6 43 43 N 12 19 29.88 1012 10 16.0934 N/A
1:35 pm 13:35 Sunny 76 24.6 53 11.6 44 44 N 10 17 29.88 1012 10 16.0934 N/A
1:55 pm 13:55 Sunny 79 25.9 52 11.1 40 40 N 10 17 29.88 1012 10 16.0934 N/A
2:15 pm 14:15 Sunny 80 26.9 53 11.9 39 39 NNE 10 17 29.85 1011 10 16.0934 N/A
2:35 pm 14:35 Sunny 82 27.8 52 11.1 35 35 NNE 9 15 29.85 1011 10 16.0934 N/A
2:55 pm 14:55 Sunny 82 27.7 53 11.4 36 36 N 9 15 29.85 1011 10 16.0934 N/A
3:15 pm 15:15 Sunny 82 28 53 11.7 36 36 N 13 20 29.85 1011 10 16.0934 N/A
3:35 pm 15:35 Sunny 83 28.4 55 12.5 37 37 NNE 12 19 29.88 1012 10 16.0934 N/A
3:55 pm 15:55 Sunny 83 28.4 54 12.2 37 37 N 10 17 29.88 1012 10 16.0934 N/A
4:15 pm 16:15 Sunny 83 28.5 52 11 34 34 N 8 13 29.88 1012 10 16.0934 N/A
4:35 pm 16:35 Sunny 83 28.6 52 11.2 34 34 N 7 11 29.88 1012 10 16.0934 N/A
4:55 pm 16:55 Sunny 83 28.6 52 11.1 34 34 N 7 11 29.88 1012 10 16.0934 N/A
5:15 pm 17:15 Sunny 84 28.8 52 11.3 34 34 NNE 8 13 29.88 1012 10 16.0934 N/A
5:35 pm 17:35 Sunny 84 28.9 53 11.6 34 34 N 7 11 29.88 1012 10 16.0934 N/A
5:55 pm 17:55 Sunny 84 28.8 52 11.3 34 34 NNE 8 13 29.88 1012 10 16.0934 N/A
6:15 pm 18:15 Sunny 83 28.5 55 12.8 38 38 N 8 13 29.88 1012 10 16.0934 N/A
6:35 pm 18:35 Sunny 83 28.5 52 11.3 34 34 NNE 8 13 29.88 1012 10 16.0934 N/A
6:55 pm 18:55 Sunny 83 28.4 53 11.9 36 36 N 6 9 29.88 1012 10 16.0934 N/A
7:15 pm 19:15 Sunny 82 28 55 12.5 38 38 N 5 7 29.88 1012 10 16.0934 N/A
7:35 pm 19:35 Sunny 81 27.4 57 14 44 44 N 3 6 29.91 1013 10 16.0934 N/A
7:55 pm 19:55 Sunny 80 26.5 60 15.4 51 51 N 5 7 29.91 1013 10 16.0934 N/A
8:15 pm 20:15 Sunny 77 25.2 61 16.1 57 57 N 5 7 29.91 1013 10 16.0934 N/A
8:35 pm 20:35 Sunny 75 23.7 63 17.4 68 68 NNW 6 9 29.91 1013 10 16.0934 N/A
8:55 pm 20:55 Sunny 73 22.9 63 17.1 70 70 NNW 6 9 29.94 1014 10 16.0934 N/A
9:15 pm 21:15 Clear 70 20.9 62 16.6 77 77 NNW 6 9 29.94 1014 10 16.0934 N/A
9:35 pm 21:35 Clear 69 20.8 58 14.7 68 68 N 7 11 29.94 1014 10 16.0934 N/A
9:55 pm 21:55 Clear 67 19.4 59 14.8 75 75 N 7 11 29.97 1015 10 16.0934 N/A
10:15 pm 22:15 Clear 66 18.8 58 14.5 76 76 N 7 11 30 1016 10 16.0934 N/A
10:35 pm 22:35 Clear 65 18.6 57 13.7 73 73 N 9 15 30 1016 10 16.0934 N/A
10:55 pm 22:55 Clear 64 18 56 13.4 75 75 N 8 13 30 1016 10 16.0934 N/A
11:15 pm 23:15 Clear 62 16.9 56 13.6 81 81 N 6 9 30.03 1017 10 16.0934 N/A
11:35 pm 23:35 Clear 62 16.5 57 14.1 86 86 N 6 9 30.06 1018 10 16.0934 N/A
11:55 pm 23:55 Clear 60 15.8 57 13.7 87 87 Calm 30.06 1018 10 16.0934 N/A

Powered by AerisWeather